[[{"header":{"parameterUnit":"m.s-1","parameterCategory":1,"la1":30.2991,"la2":30.254,"lo1":-89.0895,"lo2":-89.0444,"dy":0.0017,"dx":0.0017,"nx":28,"ny":28,"refTime":"2024-07-23T03:00:00:Z","depth":0,"parameterNumber":2,"parameterNumberName":"U-component_of_WINDS"},"data":[0,0,0,0,0,0,0,0,0,0,0,0,0,0,0,0,0,0,0,0,0,0,0,0,0,0,0,0,0,0,0,0,0,0,0,0,0,0,0,0,0,0,0,0,0,0,0,0,0,0,0,0,0,0,0,0,0,0,-1.8972,-1.8973,0,-1.902,-1.902,-1.9021,-1.9023,-1.9022,-1.9022,-1.9021,-1.9071,-1.9073,-1.9074,0,0,0,0,0,0,0,0,0,0,0,0,0,-1.8886,-1.8887,-1.8972,-1.8973,-1.8973,-1.902,-1.902,-1.9021,-1.9023,-1.9022,-1.9022,-1.9021,-1.907,-1.9072,-1.9075,0,0,0,0,0,0,0,0,0,0,0,0,0,-1.8927,-1.8888,-1.8972,-1.898,-1.8981,-1.902,-1.902,-1.9021,-1.9023,-1.9022,-1.9021,-1.9021,-1.9069,-1.9072,-1.9075,-1.9109,0,0,-1.9083,-1.9085,0,0,0,0,0,0,0,0,-1.8925,-1.893,-1.8978,-1.898,-1.8981,-1.9015,-1.9008,-1.9051,-1.9023,-1.9007,-1.9021,-1.902,-1.9053,-1.9057,-1.9068,-1.9111,-1.9114,-1.9084,-1.9085,-1.9087,-1.9087,0,0,0,0,0,0,0,-1.8922,-1.8928,-1.8991,-1.8979,-1.8981,-1.8982,-1.8987,-1.9016,-1.9034,-1.9009,-1.9009,-1.9014,-1.9053,-1.9065,-1.9069,-1.9114,-1.9084,-1.9086,-1.9088,-1.9089,-1.919,-1.9191,0,0,0,0,0,0,-1.8917,-1.8926,-1.899,-1.8993,-1.895,-1.8984,-1.899,-1.9005,-1.9034,-1.9038,-1.9015,-1.9014,-1.9061,-1.9066,-1.9071,-1.9113,-1.9087,-1.9089,-1.9091,-1.9189,-1.919,-1.9192,0,0,0,0,0,0,-1.8915,-1.8923,-1.8988,-1.8959,-1.8968,-1.8987,-1.9003,-1.9006,-1.9018,-1.9039,-1.9042,-1.9023,-1.906,-1.9067,-1.91,-1.9115,-1.909,-1.9093,-1.9188,-1.919,-1.9191,-1.9197,0,0,0,0,0,0,-1.8913,-1.8922,-1.8935,-1.896,-1.8969,-1.9015,-1.9004,-1.9008,-1.9022,-1.9022,-1.9048,-1.9051,-1.906,-1.9096,-1.9103,-1.9118,-1.9095,-1.9187,-1.9189,-1.919,-1.9196,-1.9199,-1.9201,0,0,0,0,0,-1.891,-1.8934,-1.8935,-1.8943,-1.8985,-1.9016,-1.9021,-1.9031,-1.9023,-1.9036,-1.9051,-1.905,-1.9113,-1.9099,-1.9107,-1.9123,-1.9186,-1.9188,-1.919,-1.9194,-1.9198,-1.9201,0,0,0,0,0,0,-1.891,-1.8938,-1.8939,-1.8972,-1.8992,-1.9016,-1.9032,-1.9035,-1.9057,-1.9055,-1.9067,-1.9073,-1.9106,-1.9118,-1.9103,-1.9159,-1.9148,-1.9152,-1.9149,-1.9153,-1.9155,-1.9151,-1.9097,0,0,0,0,0,-1.8914,-1.8937,-1.896,-1.8987,-1.8997,-1.9013,-1.9027,-1.9033,-1.9054,-1.9062,-1.9078,-1.9099,-1.9124,-1.9139,-1.9163,-1.9199,-1.9205,-1.9214,-1.9217,-1.9219,-1.9222,-1.9243,-1.9247,-1.9199,-1.9199,-1.9199,0,0,-1.8922,-1.894,-1.8954,-1.8987,-1.9003,-1.9027,-1.902,-1.9045,-1.9062,-1.9066,-1.9098,-1.9111,-1.9135,-1.917,-1.9186,-1.9181,-1.9237,-1.9222,-1.9224,-1.9225,-1.9246,-1.925,-1.9254,-1.9201,-1.92,-1.92,0,0,-1.8949,-1.8965,-1.899,-1.9006,-1.903,-1.9042,-1.9048,-1.9073,-1.9081,-1.9114,-1.9117,-1.914,-1.9181,-1.9198,-1.9212,-1.9249,-1.925,-1.9257,-1.9271,-1.9291,-1.9295,-1.9298,-1.9311,-1.9315,-1.926,-1.926,-1.926,0,-1.8956,-1.8991,-1.9002,-1.9027,-1.9042,-1.9048,-1.9073,-1.9089,-1.912,-1.913,-1.9125,-1.9178,-1.9195,-1.9234,-1.9243,-1.9255,-1.9263,-1.9252,-1.9293,-1.9297,-1.93,-1.9312,-1.9317,-1.9261,-1.926,-1.926,-1.926,0,-1.8998,-1.9023,-1.904,-1.907,-1.9087,-1.9113,-1.9128,-1.9145,-1.9151,-1.9163,-1.9197,-1.9218,-1.9246,-1.9256,-1.9262,-1.9297,-1.9293,-1.9291,-1.928,-1.9305,-1.9317,-1.9322,-1.9261,-1.9261,-1.9261,-1.9261,0,0,-1.9024,-1.9061,-1.9067,-1.9081,-1.911,-1.9129,-1.9156,-1.9184,-1.9198,-1.922,-1.9243,-1.9279,-1.9278,-1.9294,-1.9302,-1.932,-1.9348,-1.9315,-1.9316,-1.932,-1.9388,-1.9389,-1.9394,-1.935,-1.9351,-1.9351,-1.9386,0,-1.9053,-1.9099,-1.9111,-1.915,-1.9173,-1.918,-1.9204,-1.9224,-1.9237,-1.926,-1.9275,-1.93,-1.9296,-1.9306,-1.9324,-1.934,-1.9361,-1.9338,-1.9371,-1.9372,-1.9362,-1.94,-1.9401,-1.9432,-1.9391,-1.9392,-1.9392,0,-1.9092,-1.9115,-1.9157,-1.9184,-1.9194,-1.9214,-1.9242,-1.9263,-1.9288,-1.9296,-1.9315,-1.9322,-1.9352,-1.9341,-1.9382,-1.9366,-1.9381,-1.9391,-1.9393,-1.9395,-1.9382,-1.9402,-1.9442,-1.9447,-1.94,-1.9399,-1.9398,0,-1.9105,-1.9147,-1.9178,-1.919,-1.9222,-1.9237,-1.9251,-1.9275,-1.9291,-1.9316,-1.9327,-1.9355,-1.937,-1.9392,-1.9407,-1.9398,-1.9446,-1.9437,-1.9454,-1.9454,-1.9462,-1.9461,-1.9504,-1.9474,-1.9474,-1.9474,-1.9474,0,-1.9135,-1.916,-1.9184,-1.9203,-1.9232,-1.9247,-1.9275,-1.929,-1.9312,-1.9334,-1.9343,-1.9364,-1.9383,-1.9407,-1.942,-1.9452,-1.9459,-1.9467,-1.9469,-1.9465,-1.9464,-1.9473,-1.9471,-1.9475,-1.9475,-1.9475,-1.9475,0,-1.9154,-1.9171,-1.9205,-1.9233,-1.9241,-1.9261,-1.9286,-1.9305,-1.932,-1.9348,-1.9356,-1.9379,-1.9408,-1.9426,-1.9463,-1.9471,-1.9506,-1.9509,-1.9497,-1.9498,-1.9514,-1.9512,-1.9563,-1.9571,-1.9537,-1.9537,-1.9538,0,-1.9171,-1.9191,-1.9222,-1.9237,-1.9252,-1.9277,-1.9294,-1.9311,-1.9328,-1.9359,-1.9375,-1.9404,-1.9429,-1.9475,-1.9496,-1.9524,-1.9527,-1.9543,-1.9531,-1.9527,-1.9526,-1.9524,-1.9526,-1.9544,-1.9545,-1.9545,-1.9545,0,-1.92,-1.9208,-1.9232,-1.9259,-1.9279,-1.9302,-1.9325,-1.9337,-1.9358,-1.9378,-1.9407,-1.9426,-1.9465,-1.9494,-1.9525,-1.9542,-1.9547,-1.9549,-1.9555,-1.9549,-1.9542,-1.9545,-1.9501,-1.9547,-1.9547,-1.9547,-1.9547,-1.9547,-1.9218,-1.9236,-1.9261,-1.9288,-1.9307,-1.9328,-1.9347,-1.9365,-1.939,-1.9422,-1.9431,-1.9462,-1.9489,-1.9531,-1.9548,-1.9573,-1.9571,-1.9579,-1.9581,-1.9582,-1.9582,-1.9539,-1.9579,-1.9579,-1.9579,-1.9579,-1.9579,0,-1.9246,-1.9263,-1.9288,-1.9319,-1.9341,-1.9345,-1.9371,-1.9389,-1.9416,-1.944,-1.9464,-1.9499,-1.9529,-1.9553,-1.9583,-1.9599,-1.9603,-1.9607,-1.9605,-1.9608,-1.9582,-1.9574,-1.9603,-1.9603,-1.9603,-1.9603,-1.9603,-1.9603,-1.9263,-1.9294,-1.9305,-1.9346,-1.9363,-1.9394,-1.9408,-1.9428,-1.9448,-1.9486,-1.9511,-1.9526,-1.9551,-1.9583,-1.9611,-1.9618,-1.9628,-1.9631,-1.9638,-1.9613,-1.961,-1.9608,-1.96,-1.9634,-1.9634,-1.9662,-1.9662,-1.9662]},{"header":{"parameterUnit":"m.s-1","parameterCategory":1,"la1":30.2991,"la2":30.254,"lo1":-89.0895,"lo2":-89.0444,"dy":0.0017,"dx":0.0017,"nx":28,"ny":28,"refTime":"2024-07-23T03:00:00:Z","depth":0,"parameterNumber":3,"parameterNumberName":"V-component_of_WINDS"},"data":[0,0,0,0,0,0,0,0,0,0,0,0,0,0,0,0,0,0,0,0,0,0,0,0,0,0,0,0,0,0,0,0,0,0,0,0,0,0,0,0,0,0,0,0,0,0,0,0,0,0,0,0,0,0,0,0,0,0,3.4833,3.4833,0,3.4859,3.4859,3.486,3.4902,3.4903,3.4904,3.4904,3.4928,3.4928,3.4927,0,0,0,0,0,0,0,0,0,0,0,0,0,3.4818,3.4818,3.4833,3.4833,3.4834,3.4859,3.4859,3.486,3.4902,3.4903,3.4904,3.4905,3.4928,3.4928,3.4927,0,0,0,0,0,0,0,0,0,0,0,0,0,3.4832,3.4818,3.4833,3.4858,3.486,3.4859,3.4859,3.486,3.4902,3.4903,3.4904,3.4905,3.4928,3.4928,3.4927,3.4903,0,0,3.4927,3.4927,0,0,0,0,0,0,0,0,3.4831,3.4833,3.4854,3.4856,3.4859,3.4879,3.4863,3.4874,3.4901,3.4886,3.4904,3.4906,3.491,3.4911,3.4914,3.4904,3.4905,3.4927,3.4927,3.4927,3.4927,0,0,0,0,0,0,0,3.483,3.4832,3.4843,3.4854,3.4857,3.4867,3.487,3.4865,3.4891,3.4887,3.489,3.4893,3.4912,3.4914,3.4915,3.4905,3.4927,3.4927,3.4927,3.4927,3.4877,3.4876,0,0,0,0,0,0,3.4826,3.4831,3.4842,3.4844,3.4848,3.4866,3.487,3.4871,3.4891,3.4895,3.4892,3.4895,3.4913,3.4915,3.4915,3.4889,3.4927,3.4927,3.4926,3.4879,3.4877,3.4876,0,0,0,0,0,0,3.4825,3.4827,3.4841,3.4838,3.4841,3.4865,3.4866,3.4871,3.4873,3.4895,3.4899,3.4889,3.4914,3.4916,3.4906,3.489,3.4926,3.4926,3.488,3.4878,3.4877,3.4834,0,0,0,0,0,0,3.4825,3.4826,3.4817,3.4838,3.4841,3.4832,3.4865,3.4871,3.4873,3.4877,3.4894,3.4897,3.4915,3.4906,3.4906,3.489,3.4926,3.4882,3.4879,3.4877,3.4837,3.4831,3.4826,0,0,0,0,0,3.4824,3.4804,3.4817,3.4818,3.4831,3.4831,3.4833,3.4855,3.4871,3.4863,3.4877,3.4897,3.4892,3.4905,3.4905,3.4889,3.4883,3.488,3.4877,3.484,3.4832,3.4826,0,0,0,0,0,0,3.4779,3.4807,3.4822,3.4807,3.4817,3.4838,3.4828,3.4846,3.485,3.4854,3.488,3.4883,3.487,3.4879,3.4893,3.4867,3.489,3.4888,3.4862,3.4855,3.485,3.4848,3.4926,0,0,0,0,0,3.4768,3.4767,3.479,3.4775,3.478,3.4803,3.4804,3.482,3.483,3.4834,3.4848,3.4856,3.4857,3.4856,3.4858,3.4839,3.4843,3.4828,3.4822,3.4818,3.4815,3.4806,3.48,3.4867,3.4867,3.4867,0,0,3.4744,3.4759,3.4756,3.4767,3.4776,3.4774,3.4806,3.4802,3.48,3.4833,3.4826,3.4836,3.4847,3.4833,3.4827,3.4839,3.4798,3.4814,3.4811,3.481,3.4803,3.4796,3.4791,3.4865,3.4865,3.4866,0,0,3.47,3.4711,3.47,3.4709,3.4723,3.4739,3.4736,3.4755,3.4764,3.4757,3.4782,3.478,3.478,3.4787,3.4791,3.475,3.4769,3.475,3.4721,3.4712,3.4707,3.4702,3.4688,3.4683,3.4747,3.4747,3.4747,0,3.4668,3.4666,3.4692,3.4686,3.469,3.4722,3.4711,3.4718,3.4731,3.4733,3.4747,3.4749,3.4758,3.4747,3.4737,3.4739,3.4736,3.4748,3.4706,3.4701,3.4697,3.4684,3.4679,3.4745,3.4745,3.4745,3.4746,0,3.4627,3.4625,3.4614,3.4628,3.4631,3.4623,3.4646,3.4646,3.4662,3.4676,3.4669,3.4682,3.4687,3.4686,3.4701,3.4676,3.4683,3.4701,3.4725,3.4688,3.4676,3.4671,3.4741,3.4742,3.4743,3.4744,0,0,3.4554,3.4583,3.4578,3.4585,3.4604,3.4603,3.4596,3.4602,3.4602,3.461,3.4605,3.4605,3.4622,3.4626,3.4642,3.4635,3.4602,3.4653,3.4654,3.4644,3.4576,3.4563,3.4557,3.4615,3.4614,3.4613,3.4575,0,3.4513,3.4504,3.4527,3.4512,3.4511,3.4542,3.4536,3.4546,3.456,3.456,3.4575,3.4574,3.4597,3.46,3.4593,3.4607,3.4589,3.4611,3.461,3.461,3.4606,3.455,3.4536,3.4499,3.4571,3.457,3.4569,0,3.4464,3.4471,3.4457,3.4477,3.4478,3.4472,3.448,3.4481,3.4493,3.4503,3.4509,3.4528,3.4523,3.4546,3.4539,3.4553,3.4554,3.4562,3.4561,3.4561,3.4587,3.4549,3.4488,3.4483,3.4562,3.4563,3.4563,0,3.4413,3.4419,3.4411,3.4416,3.444,3.4435,3.4444,3.4458,3.4461,3.4468,3.447,3.4475,3.4478,3.4482,3.4503,3.4518,3.4493,3.4518,3.4501,3.45,3.4494,3.4494,3.4432,3.4494,3.4495,3.4495,3.4495,0,3.4365,3.4355,3.4389,3.4384,3.4374,3.44,3.4389,3.4401,3.4414,3.4411,3.4438,3.4435,3.4462,3.4463,3.4479,3.447,3.4471,3.4479,3.4483,3.4477,3.4476,3.4478,3.4481,3.4493,3.4494,3.4494,3.4494,0,3.4306,3.4328,3.4322,3.4345,3.4351,3.4342,3.4362,3.4358,3.4373,3.437,3.4371,3.4395,3.4397,3.4418,3.4423,3.4434,3.442,3.4429,3.4416,3.4419,3.4401,3.4402,3.4338,3.4331,3.4397,3.4397,3.4396,0,3.4273,3.4267,3.429,3.4291,3.4299,3.43,3.4304,3.433,3.4332,3.4346,3.4341,3.4345,3.435,3.4351,3.4368,3.4373,3.4382,3.436,3.4383,3.4377,3.4382,3.4383,3.4382,3.4354,3.4353,3.4353,3.4352,0,3.4214,3.4226,3.4231,3.4239,3.4243,3.425,3.4259,3.4258,3.4287,3.4288,3.4291,3.4295,3.4301,3.4305,3.4313,3.4322,3.4342,3.4345,3.4341,3.4334,3.4327,3.4331,3.4402,3.4346,3.4347,3.4347,3.4347,3.4348,3.4168,3.4164,3.418,3.4184,3.4194,3.4202,3.42,3.4216,3.4219,3.4228,3.4242,3.4243,3.4256,3.4269,3.4277,3.4277,3.4289,3.4284,3.4282,3.4281,3.4277,3.4327,3.4279,3.4279,3.4279,3.4279,3.4279,0,3.4111,3.4123,3.4127,3.4139,3.4143,3.4162,3.4173,3.4175,3.4175,3.4186,3.4191,3.4194,3.4198,3.4217,3.4222,3.4219,3.4229,3.422,3.4221,3.4222,3.4266,3.4269,3.4213,3.4213,3.4213,3.4213,3.4213,3.4213,3.4081,3.4076,3.4089,3.4089,3.4101,3.4103,3.4107,3.4115,3.4124,3.4127,3.4131,3.4144,3.4158,3.4165,3.4169,3.4175,3.4176,3.4164,3.4172,3.4213,3.4219,3.4225,3.4228,3.4164,3.4164,3.4129,3.4128,3.4128]}]]